Booneville, Arkansas, United States (72927)
Lat: 35.14N, Lon: 93.92W
Wx Zone: ARZ030
Local Info
Past Weather Observations for Thursday, May 21, 2015

NOTE: This archive is for the closest National Weather Service station to Booneville. Information may differ from the station used for current weather conditions.

Click here for Long-term Archive

Time Weather Temperature Dewpoint Humidity Pressure Winds Precip Visibility
23:53
Clear
57°F / 14°C 52°F / 11°C 82% 30.21 in
(1023 mb)
ENE 3.5 mph
(ENE 6 kph)
- 10SM
22:53
Clear
57°F / 14°C 52°F / 11°C 82% 30.21 in
(1023 mb)
E 3.5 mph
(E 6 kph)
- 10SM
21:53
Clear
57°F / 14°C 52°F / 11°C 82% 30.21 in
(1023 mb)
E 5.8 mph
(E 9 kph)
- 10SM
20:53
Clear
61°F / 16°C 52°F / 11°C 72% 30.18 in
(1022 mb)
ENE 4.6 mph
(ENE 7 kph)
- 10SM
19:53
Clear
63°F / 17°C 48°F / 9°C 59% 30.18 in
(1022 mb)
NE 5.8 mph
(NE 9 kph)
- 10SM
18:53
Clear
66°F / 19°C 48°F / 9°C 52% 30.15 in
(1021 mb)
Calm - 10SM
17:53
Clear
68°F / 20°C 46°F / 8°C 46% 30.15 in
(1021 mb)
SE 3.5 mph
(SE 6 kph)
- 10SM
16:53
Clear
70°F / 21°C 48°F / 9°C 46% 30.15 in
(1021 mb)
Variable 3.5 mph
(Variable 6 kph)
- 10SM
15:53
Clear
70°F / 21°C 48°F / 9°C 46% 30.18 in
(1022 mb)
ENE 4.6 mph
(ENE 7 kph)
- 10SM
14:53
Clear
66°F / 19°C 46°F / 8°C 49% 30.21 in
(1023 mb)
Calm - 10SM
13:53
Partly Cloudy
66°F / 19°C 46°F / 8°C 49% 30.21 in
(1023 mb)
NNE 6.9 mph
(NNE 11 kph)
- 10SM
12:53
Partly Cloudy
64°F / 18°C 46°F / 8°C 52% 30.24 in
(1024 mb)
NNE 8.1 mph
(NNE 13 kph)
- 10SM
11:53
Partly Cloudy
63°F / 17°C 46°F / 8°C 56% 30.24 in
(1024 mb)
ENE 9.2 mph
(ENE 15 kph)
- 10SM
10:53
Partly Cloudy
61°F / 16°C 45°F / 7°C 55% 30.27 in
(1025 mb)
NE 8.1 mph
(NE 13 kph)
- 10SM
09:53
Overcast
61°F / 16°C 45°F / 7°C 55% 30.27 in
(1025 mb)
NE 6.9 mph
(NE 11 kph)
- 10SM
08:53
Partly Cloudy
59°F / 15°C 45°F / 7°C 59% 30.24 in
(1024 mb)
NE 5.8 mph
(NE 9 kph)
- 10SM
07:53
Mostly Cloudy
59°F / 15°C 45°F / 7°C 59% 30.24 in
(1024 mb)
NE 11.5 mph
(NE 19 kph)
- 10SM
06:53
Partly Cloudy
57°F / 14°C 45°F / 7°C 63% 30.21 in
(1023 mb)
NE 11.5 mph
(NE 19 kph)
- 10SM
06:26
Partly Cloudy
57°F / 14°C 46°F / 8°C 67% 30.21 in
(1023 mb)
NE 8.1 mph
(NE 13 kph)
- 10SM
05:53
Mostly Cloudy
57°F / 14°C 46°F / 8°C 67% 30.18 in
(1022 mb)
NE 11.5 mph
(NE 19 kph)
- 10SM
04:58
Mostly Cloudy
57°F / 14°C 46°F / 8°C 67% 30.18 in
(1022 mb)
NNE 10.4 mph
(NNE 17 kph)
- 10SM
04:53
Overcast
57°F / 14°C 46°F / 8°C 67% 30.18 in
(1022 mb)
NNE 11.5 mph
(NNE 19 kph)
- 10SM
03:53
Overcast
57°F / 14°C 48°F / 9°C 72% 30.15 in
(1021 mb)
N 12.7 mph
(N 20 kph)
- 10SM
02:53
Overcast
57°F / 14°C 48°F / 9°C 72% 30.18 in
(1022 mb)
N 11.5 mph
(N 19 kph)
- 10SM
01:53
Overcast
57°F / 14°C 50°F / 10°C 77% 30.15 in
(1021 mb)
N 10.4 mph
(N 17 kph)
- 10SM
00:53
Overcast
59°F / 15°C 50°F / 10°C 72% 30.15 in
(1021 mb)
N 8.1 mph
(N 13 kph)
- 10SM
Time Weather Temperature Dewpoint Humidity Pressure Winds Precip Visibility


Weather for websites

WeatherForYou.com, LLC is not responsible for any damages or problems caused by this service. Current weather conditions are obtained from the closest station including government and personal stations which may have varying degrees of accuracy. Weather forecasts are derived from the NOAA NDFD. Like all things, this site belongs to Jesus Christ... He just trusts us to maintain it. If you have any questions or comments email webmaster@weatherforyou.com

Copyright © 2015, WeatherForYou.com LLC. All rights reserved.